{"data":{"norad_id":81301,"epoch":"2026-05-19T15:01:20.314848Z","epoch_age_seconds":532644,"freshness":"STALE","line1":"1 81301U          26139.62592957  .00000137  00000+0  20941-3 0  9998","line2":"2 81301  66.7583 278.7411 0083198 126.5334 248.8215 13.76807923628094","mean_motion":13.76807923,"eccentricity":0.0083198,"inclination_deg":66.7583,"raan_deg":278.7411,"arg_perigee_deg":126.5334,"mean_anomaly_deg":248.8215,"bstar":0.00020941,"rev_number":62809,"period_min":104.58975256783,"perigee_km":914.0519364972,"apogee_km":1036.4090300721,"semimajor_km":7353.3674832846,"source":"CELESTRAK","updated_at":"2026-05-25T13:38:09.448190Z"}}